Location: Newark
(43.0000°N, 1.6781°W)
Time: 03:33:19
(UTC+00:00)

Explorer 7 - Pass Details

Date: 21 April 2021
Orbit: 484 x 677 km, 50.3° (Epoch: 07 May)

Event Time Altitude Azimuth Distance (km) Brightness Sun altitude
Rises 01:34:22 0° 299° (WNW) 2,843 - -31.5°
Reaches altitude 10° 01:36:36 10° 297° (WNW) 1,969 - -31.3°
Maximum altitude 01:41:07 70° 215° (SW) 677 - -30.9°
Drops below altitude 10° 01:45:52 10° 131° (SE) 2,063 - -30.5°
Sets 01:48:16 0° 129° (SE) 2,991 - -30.3°
